This demonstration page uses our WeatherBlox Daily Observations layout. Learn more.

Left ArrowRight Arrow

Hourly Observations for June 26, 2022

Temp ( °F °C ) Dew Point ( °F °C ) Humidity (%) Winds ( mph kmh ) Pressure ( in mb ) Visibility ( mi km ) Precip ( " mm )
12:53 am 00:53 Clear 61 16.1 49 9.4 65 65 N 10 17 30.27 1025 10 16 0.00 0.00
1:53 am 01:53 Clear 62 16.7 47 8.3 58 58 N 10 17 30.26 1025 10 16 0.00 0.00
2:53 am 02:53 Clear 57 13.9 48 8.9 72 72 N 7 11 30.27 1025 10 16 0.00 0.00
3:53 am 03:53 Clear 55 12.8 47 8.3 74 74 NNW 8 13 30.27 1025 10 16 0.00 0.00
4:53 am 04:53 Clear 56 13.3 46 7.8 70 70 NNW 8 13 30.29 1026 10 16 0.00 0.00
5:53 am 05:53 Clear 57 13.9 45 7.2 64 64 NNW 9 15 30.32 1027 10 16 0.00 0.00
6:53 am 06:53 Sunny 56 13.3 46 7.8 70 70 N 8 13 30.36 1028 10 16 0.00 0.00
7:53 am 07:53 Sunny 59 15 46 7.8 62 62 N 8 13 30.39 1029 10 16 0.00 0.00
8:53 am 08:53 Sunny 61 16.1 45 7.2 56 56 N 7 11 30.41 1030 10 16 0.00 0.00
9:53 am 09:53 Sunny 62 16.7 44 6.7 52 52 NW 7 11 30.44 1031 10 16 0.00 0.00
10:53 am 10:53 Sunny 66 18.9 45 7.2 47 47 N 8 13 30.42 1030 10 16 0.00 0.00
11:53 am 11:53 Sunny 68 20 45 7.2 44 44 N 7 11 30.41 1030 10 16 0.00 0.00
12:53 pm 12:53 Sunny 70 21.1 43 6.1 38 38 NNW 10 17 30.40 1029 10 16 0.00 0.00
1:53 pm 13:53 Sunny 72 22.2 43 6.1 35 35 N 8 13 30.37 1029 10 16 0.00 0.00
2:53 pm 14:53 Sunny 75 23.9 44 6.7 33 33 NNW 13 20 30.35 1028 10 16 0.00 0.00
3:53 pm 15:53 Sunny 78 25.6 42 5.6 28 28 N 12 19 30.33 1027 10 16 0.00 0.00
4:53 pm 16:53 Sunny 78 25.6 40 4.4 26 26 NW 7 11 30.31 1026 10 16 0.00 0.00
5:53 pm 17:53 Sunny 79 26.1 41 5 26 26 NNW 10 17 30.30 1026 10 16 0.00 0.00
6:53 pm 18:53 Sunny 78 25.6 39 3.9 25 25 N 9 15 30.29 1026 10 16 0.00 0.00
7:53 pm 19:53 Sunny 77 25 42 5.6 29 29 N 6 9 30.29 1026 10 16 0.00 0.00
8:53 pm 20:53 Sunny 75 23.9 45 7.2 34 34 Calm 30.29 1026 10 16 0.00 0.00
9:53 pm 21:53 Clear 66 18.9 50 10 56 56 Calm 30.32 1027 9 14 0.00 0.00
10:53 pm 22:53 Clear 66 18.9 50 10 56 56 Calm 30.34 1028 10 16 0.00 0.00
11:53 pm 23:53 Clear 63 17.2 52 11.1 68 68 Calm 30.35 1028 10 16 0.00 0.00

Powered by AerisWeather